Location: ???? ?????????
(44.3677°N, 135.2344°E)
Time: 16:54:06
(UTC+00:00)

Meteor 2-9 Rocket - Pass Details

Date: 19 May 2025
Orbit: 791 x 892 km, 81.3° (Epoch: 20 June)

Event Time Altitude Azimuth Distance (km) Brightness Sun altitude
Rises 13:45:39 0° 346° (NNW) 3,407 8.8 -23.8°
Reaches altitude 10° 13:48:03 10° 344° (NNW) 2,484 7.7 -23.9°
Maximum altitude 13:53:38 66° 264° (W) 946 4.4 -24.2°
Enters shadow 13:54:56 51° 208° (SSW) 1,089 4.4 -24.2°
